This is the latest recevied weather packets stored in our database for station/object K4AXV-13. If no packets are shown the sender has not sent any weather packets the latest 10 day(s).
| Time | Temp. | Humidity | Pressure | Rain* | Wind** | Luminosity | Snow |
|---|---|---|---|---|---|---|---|
| 1778175247 | 23.33° C | - | - | 0 mm | 0.45 m/s, 325° | - | - |
| 1778174945 | 23.33° C | - | - | 0 mm | 1.34 m/s, 280° | - | - |
| 1778174646 | 23.33° C | - | - | 0 mm | 0.89 m/s, 198° | - | - |
| 1778174344 | 23.33° C | - | - | 0 mm | 0 m/s | - | - |
| 1778174045 | 23.33° C | - | - | 0 mm | 0.45 m/s, 256° | - | - |
| 1778173744 | 23.33° C | - | - | 0 mm | 1.34 m/s, 278° | - | - |
| 1778173445 | 23.33° C | - | - | 0 mm | 0 m/s | - | - |
| 1778173143 | 22.78° C | - | - | 0 mm | 0 m/s | - | - |
| 1778172844 | 22.78° C | - | - | 0 mm | 0.89 m/s, 359° | - | - |
| 1778172542 | 22.78° C | - | - | 0 mm | 0 m/s | - | - |
| 1778172243 | 22.78° C | - | - | 0 mm | 0.45 m/s, 305° | - | - |
| 1778171942 | 22.78° C | - | - | 0 mm | 0.45 m/s, 238° | - | - |
| 1778171643 | 22.78° C | - | - | 0 mm | 0.89 m/s, 249° | - | - |
| 1778171341 | 22.78° C | - | - | 0 mm | 0 m/s | - | - |
| 1778171042 | 22.78° C | - | - | 0 mm | 0.45 m/s, 155° | - | - |
| 1778170740 | 22.22° C | - | - | 0 mm | 0.45 m/s, 101° | - | - |
| 1778170441 | 22.78° C | - | - | 0 mm | 0 m/s | - | - |
| 1778170139 | 22.78° C | - | - | 0 mm | 0.45 m/s, 48° | - | - |
| 1778169840 | 22.78° C | - | - | 0 mm | 1.34 m/s, 277° | - | - |
| 1778169539 | 22.78° C | - | - | 0 mm | 0.89 m/s, 207° | - | - |
| 1778169240 | 22.78° C | - | - | 0 mm | 0 m/s | - | - |
| 1778168938 | 23.33° C | - | - | 0 mm | 1.79 m/s, 7° | - | - |
| 1778168639 | 23.33° C | - | - | 0 mm | 1.79 m/s, 278° | - | - |
| 1778168337 | 23.33° C | - | - | 0 mm | 0.89 m/s, 359° | - | - |
| 1778168038 | 23.89° C | - | - | 0 mm | 0.45 m/s, 117° | - | - |
* Rain latest hour (hover to see other rain measurements)
** Current wind speed in m/s (hover to see current wind gust speed)